Location: Unspecified
(0.0000°N, 0.0000°E)
Time: 06:25:03
(UTC+02:00)

Transit 2A - Visible Passes

Search period start: 24 September 2014 00:00
Search period end: 04 October 2014 00:00
Orbit: 600 x 962 km, 66.7° (Epoch: 23 September)

Date Brightness Start Highest point End Pass type
(mag) Time Alt. Az. Time Alt. Az. Time Alt. Az.
26 Sep 8.0 21:17:29 10° NNE 21:19:02 17° NNE 21:19:02 17° NNE visible
27 Sep 7.8 20:45:13 10° NNE 20:48:14 17° ENE 20:48:14 17° ENE visible
27 Sep 8.1 22:26:17 10° NW 22:28:54 25° WNW 22:28:54 25° WNW visible
28 Sep 6.6 21:52:28 10° NNW 21:58:22 66° WSW 21:58:46 64° SW visible
29 Sep 6.2 21:18:55 10° NNW 21:24:53 80° ENE 21:29:46 18° SSE visible
30 Sep 6.5 20:45:39 10° N 20:51:24 51° ENE 20:57:30 10° SE visible
30 Sep 9.0 22:31:29 10° W 22:34:35 14° WSW 22:37:45 10° SW visible
01 Oct 7.1 20:12:42 10° N 20:17:56 32° ENE 20:23:27 10° SE visible
01 Oct 8.6 21:56:22 10° WNW 22:01:01 23° WSW 22:05:50 10° SSW visible
02 Oct 7.9 21:22:01 10° NW 21:27:28 35° WSW 21:33:11 10° S visible
03 Oct 7.1 20:48:04 10° NNW 20:53:57 56° WSW 21:00:08 10° S visible
